Regional Weather Roundup
Issued by NWS

Home | Current Version | Previous Version | Text Only | Print | Product List | Glossary On
Versions: 1 2 3 4 5 6 7 8 9 10 11 12 13 14 15 16 17 18 19 20 21 22 23 24 25 26 27 28 29 30 31 32 33 34 35 36 37 38 39 40 41 42 43 44 45 46 47 48 49 50
000
ASUS43 KBIS 231710
RWRND

NORTH DAKOTA REGIONAL WEATHER ROUNDUP
NATIONAL WEATHER SERVICE BISMARCK ND
1200 PM CDT MON OCT 23 2017

NOTE: "FAIR" INDICATES FEW OR NO CLOUDS BELOW 12,000 FEET WITH NO
SIGNIFICANT WEATHER AND/OR OBSTRUCTIONS TO VISIBILITY.


NDZ001>003-009>011-017-231800-
NORTHWEST NORTH DAKOTA

CITY           SKY/WX    TMP DP  RH WIND       PRES   REMARKS
WILLISTON        N/A    N/A N/A N/A MISG      30.18R
MINOT          CLOUDY    49  35  58 NW24G32   30.06R
MINOT AFB      CLOUDY    47  35  64 NW23G30   30.05R
$$

NDZ018>021-031>035-040>046-231800-
SOUTHWEST NORTH DAKOTA

CITY           SKY/WX    TMP DP  RH WIND       PRES   REMARKS
BISMARCK       CLOUDY    52  33  48 NW26G39   30.12R
DICKINSON      SUNNY     51  31  46 NW29      30.16R
GARRISON         N/A     47  35  63 NW22G38   30.10R
HETTINGER ARPT SUNNY     52  29  41 NW26G37   30.21R
$$

NDZ004>008-012>016-024-026-027-054-231800-
NORTHEAST NORTH DAKOTA

CITY           SKY/WX    TMP DP  RH WIND       PRES   REMARKS
GRAND FORKS    MOSUNNY   51  36  56 N24G32    29.92R
GRND FRKS AFB  SUNNY     52  33  48 NW16G23   29.92R
DEVILS LAKE    MOSUNNY   46  36  68 NW21      29.98R
$$

NDZ022-023-025-028>030-036>039-047>053-231800-
SOUTHEAST NORTH DAKOTA

CITY           SKY/WX    TMP DP  RH WIND       PRES   REMARKS
FARGO          CLOUDY    48  38  68 NW21G35   29.92R
JAMESTOWN      SUNNY     49  36  61 NW21G30   30.00R
$$





USA.gov is the U.S. government's official web portal to all federal, state and local government web resources and services.